Flag for Poland Weather past 2 weeks in Sosnowiec, Poland

Now
52 °F

Cool.


Feels Like: 51 °F
Forecast: 50 / 71 °F
Wind: 3 mph from East

Location: Katowice Airport


UV Index: 3 (Moderate)

Visibility: 3 mi


Pressure: 30.09 "Hg

Humidity: 100%

Dew point: 52 °F

Location of SosnowiecLocation

Historic Weather in Sosnowiec

°F

Sosnowiec temperature yesterday

Maximum temperature yesterday: 72 °F (at 3:30 PM)
Minimum temperature yesterday: 50 °F (at 2:30 AM)
Average temperature yesterday: 58 °F

Past Weeks' High & Low Weather Summary

 TemperatureHumidityPressure
High72 °F (Apr 22, 3:30 PM)100% (Apr 10, 5:00 AM)30.33 "Hg (Apr 10, 5:00 AM)
Low28 °F (Apr 13, 5:30 AM)31% (Apr 18, 1:30 PM)29.68 "Hg (Apr 14, 11:30 AM)
Average47 °F80%29.97 "Hg
* Reported Apr 8 10:00 PM — Apr 23 10:30 PM, Sosnowiec, Weather by CustomWeather, © 2014

Note: Actual official high and low records may vary slightly from our data, if they occured in-between our weather recording intervals... More about our weather records

Advertising

Historic Weather Conditions — Data for Previous 24 hours

 ConditionsComfort  
Time TempWeatherWind HumidityBarometerVisibility
10:30 PM
Apr 23
54 °FFog.2 mph100%30.09 "Hg3 mi
10:00 PM54 °FFog.1 mph100%30.09 "Hg3 mi
9:30 PM55 °FCool.2 mph100%30.09 "Hg2 mi
9:00 PM55 °FCool.2 mph100%30.09 "Hg1 mi
8:30 PM57 °FSunny.No wind100%30.09 "Hg10 mi
8:00 PM59 °FSunny.2 mph94%30.07 "Hg10 mi
7:30 PM59 °FPassing clouds.2 mph94%30.07 "HgN/A
7:00 PM59 °FSprinkles. Scattered clouds.7 mph88%30.07 "HgN/A
6:30 PM61 °FSprinkles. Passing clouds.5 mph77%30.07 "HgN/A
6:00 PM61 °FSprinkles. Passing clouds.5 mph77%30.07 "HgN/A
5:30 PM63 °FSprinkles. Passing clouds.6 mph64%30.07 "HgN/A
5:00 PM64 °FPassing clouds.6 mph78%30.07 "HgN/A
4:30 PM63 °FPassing clouds.5 mph83%30.07 "HgN/A
4:00 PM61 °FThundershowers. Passing clouds.5 mph88%30.07 "HgN/A
3:30 PM61 °FPassing clouds.7 mph88%30.07 "HgN/A
3:00 PM59 °FSprinkles. Scattered clouds.5 mph94%30.07 "HgN/A
2:30 PM59 °FThundershowers. Scattered clouds.6 mph94%30.07 "HgN/A
2:00 PM57 °FThundershowers. Scattered clouds.6 mph94%30.09 "HgN/A
1:30 PM59 °FThunderstorms. Scattered clouds.3 mph94%30.09 "HgN/A
1:00 PM61 °FThunderstorms. Broken clouds.6 mph77%30.09 "Hg5 mi
12:30 PM66 °FScattered clouds.5 mph64%30.07 "HgN/A
12:00 PM66 °FPassing clouds.2 mph56%30.09 "HgN/A
11:30 AM66 °FPassing clouds.3 mph60%30.09 "HgN/A
11:00 AM64 °FPassing clouds.2 mph68%30.09 "HgN/A
10:30 AM63 °FPassing clouds.3 mph73%30.09 "HgN/A
10:00 AM61 °FPassing clouds.3 mph77%30.09 "HgN/A
9:30 AM59 °FClear.3 mph82%30.07 "Hg5 mi
9:00 AM57 °FClear.2 mph88%30.07 "Hg4 mi
8:30 AM55 °FClear.1 mph100%30.07 "Hg4 mi
8:00 AM54 °FFog.1 mph100%30.07 "Hg2 mi
7:30 AM52 °FFog.1 mph100%30.07 "Hg1 mi
7:00 AM50 °FFog.2 mph100%30.07 "Hg1 mi
6:30 AM50 °FCool.1 mph100%30.07 "Hg1 mi
6:00 AM48 °FCool.2 mph100%30.04 "Hg1 mi
5:30 AM50 °FFog.1 mph100%30.04 "Hg1 mi
5:00 AM48 °FFog.1 mph100%30.04 "Hg0 mi
4:30 AM50 °FFog.1 mph100%30.04 "Hg1 mi
4:00 AM50 °FFog.1 mph100%30.04 "Hg1 mi
3:30 AM48 °FFog.2 mph100%30.04 "Hg0 mi
3:00 AM48 °FFog.2 mph100%30.04 "Hg0 mi
2:30 AM48 °FFog.1 mph100%30.01 "Hg0 mi
2:00 AM50 °FFog.1 mph100%30.01 "Hg0 mi
1:30 AM52 °FFog.1 mph100%30.01 "Hg0 mi
1:00 AM52 °FFog.1 mph100%30.01 "Hg0 mi
12:30 AM52 °FCool.1 mph100%30.01 "Hg1 mi
12:00 AM54 °FFog.3 mph94%30.01 "Hg2 mi
11:30 PM
Apr 22
54 °FFog.2 mph94%30.01 "Hg2 mi
11:00 PM54 °FFog.3 mph100%30.01 "Hg2 mi
Weather by CustomWeather, © 2014

See weather overview